Regional Weather Roundup
Issued by NWS Sioux Falls, SD

Home | Current Version | Previous Version | Text Only | Print | Product List | Glossary Off
Versions: 1 2 3 4 5 6 7 8 9 10 11 12 13 14 15 16 17 18 19 20 21 22 23 24 25 26 27 28 29 30 31 32 33 34 35 36 37 38 39 40 41 42 43 44 45 46 47 48 49 50

000
ASUS43 KFSD 241002
RWRFSD

WEATHER ROUNDUP FOR SE SOUTH DAKOTA/SW MINNESOTA/NW IOWA
NATIONAL WEATHER SERVICE SIOUX FALLS SD
400 AM CST TUE JAN 24 2017

NOTE: "FAIR" INDICATES FEW OR NO CLOUDS BELOW 12,000 FEET WITH NO
SIGNIFICANT WEATHER AND OR OBSTRUCTIONS TO VISIBILITY.


SDZ038>040-050-052>070-241100-
SOUTHEAST SOUTH DAKOTA

CITY           SKY/WX    TMP DP  RH WIND       PRES   REMARKS
BROOKINGS      CLOUDY    30  28  92 E5        29.80S WCI  25
CHAMBERLAIN    CLOUDY    32  31  97 E7        29.75S FOG     WCI  25
HURON          CLOUDY    31  29  92 NE6       29.81R WCI  25
MADISON        CLOUDY    28  28 100 E8          N/A  WCI  20
MITCHELL       CLOUDY    32  30  92 E8        29.79S WCI  25
SIOUX FALLS    CLOUDY    32  30  92 SE8       29.80S WCI  25
WINNER         FOG       31  30  96 E9        29.71F VSB 1/2 WCI  23
YANKTON        CLOUDY    30  27  86 E8        29.76F WCI  23
$$

MNZ071-072-080-081-089-090-097-098-241100-
SOUTHWEST MINNESOTA

CITY           SKY/WX    TMP DP  RH WIND       PRES   REMARKS
FAIRMONT       CLOUDY    31  29  92 E5        29.86S WCI  26
JACKSON        CLOUDY    30  30 100 E5        29.84R WCI  25
MARSHALL       CLOUDY    31  29  92 E6        29.85R WCI  25
MONTEVIDEO     CLOUDY    30  30 100 CALM      29.87F
PIPESTONE      CLOUDY    30  30 100 SE6       29.80R WCI  24
REDWOOD FALLS  CLOUDY    32  26  78 CALM      29.86S
TRACY          CLOUDY    32  29  90 CALM      29.84S
WINDOM         CLOUDY    30  28  93 CALM      29.84R
WORTHINGTON    CLOUDY    31  29  92 E8        29.82  WCI  23
$$

IAZ001>003-012>014-020>022-031-032-NEZ013-014-SDZ071-241100-
NORTHWEST IOWA

CITY           SKY/WX    TMP DP  RH WIND       PRES   REMARKS
CHEROKEE       CLOUDY    32  30  94 SE6       29.82F WCI  26
DENISON        CLOUDY    30  28  93 E12       29.80S WCI  21
ESTHERVILLE    CLOUDY    30  30 100 SE3       29.84R
LE MARS        CLOUDY    32  30  93 SE8       29.81F WCI  25
ORANGE CITY    CLOUDY    30  28  93 SE6       29.80S WCI  24
SHELDON        CLOUDY    30  30 100 SE10      29.80S WCI  21
SIOUX CITY     CLOUDY    32  29  88 SE13      29.80F WCI  22
SPENCER        CLOUDY    32  29  88 SE6       29.83S WCI  26
STORM LAKE     CLOUDY    30  28  93 SE9       29.81F WCI  22
$$

ABBREVIATIONS USED IN REMARKS
   TC - TEMPERATURE IN CELSIUS
  WCI - WIND CHILL INDEX
   HX - HEAT INDEX
  VSB - VISIBILITY





USA.gov is the U.S. government's official web portal to all federal, state and local government web resources and services.